K7CTD Weather Reports


time (UTC)temp
C
wind
direction
speed
KPH
gust
KPH
rain 1hr
cm
rain 24hr
cm
rain mn
cm
humidity
%
barometer
mb
20260505124523 7 88 0.0 0.0 0.00 0.00 0.00 81 1007.9
20260505123021 7 88 0.0 0.0 0.00 0.00 0.00 81 1007.7
20260505121516 7 88 0.0 0.0 0.00 0.00 0.00 81 1007.4
20260505120014 8 88 0.0 0.0 0.00 0.00 0.00 81 1007.2
20260505114514 7 88 0.0 0.0 0.00 0.00 0.00 81 1007.2
20260505113016 8 88 0.0 0.0 0.00 0.00 0.00 80 1007.2
20260505111507 8 88 0.0 0.0 0.00 0.00 0.00 79 1007.1
20260505101556 8 88 0.0 1.6 0.00 0.00 0.00 77 1006.5
20260505100047 8 79 0.0 0.0 0.00 0.00 0.00 77 1006.4
20260505094544 9 79 0.0 1.6 0.00 0.00 0.00 77 1006.3
20260505093042 9 79 0.0 1.6 0.00 0.00 0.00 76 1006.1
20260505091540 9 75 0.0 0.0 0.00 0.00 0.00 77 1006.0
20260505090048 9 75 0.0 1.6 0.00 0.00 0.00 76 1006.0
20260505084528 9 75 0.0 1.6 0.00 0.00 0.00 75 1005.9
20260505083027 10 75 0.0 1.6 0.00 0.00 0.00 74 1005.7
20260505081528 10 75 0.0 1.6 0.00 0.00 0.00 72 1005.6
20260505080016 10 75 0.0 0.0 0.00 0.00 0.00 72 1005.5
20260505074514 10 75 0.0 1.6 0.00 0.00 0.00 69 1005.4
20260505073010 10 76 0.0 0.0 0.00 0.00 0.00 71 1005.6
20260505071504 11 75 0.0 1.6 0.00 0.00 0.00 67 1005.4
20260505070100 11 75 0.0 1.6 0.00 0.00 0.00 69 1005.1
20260505064558 11 76 0.0 0.0 0.00 0.00 0.00 67 1005.0
20260505063054 11 76 0.0 1.6 0.00 0.00 0.00 66 1005.0
20260505061551 11 76 0.0 1.6 0.00 0.00 0.00 68 1004.9
20260505060046 12 76 0.0 1.6 0.00 0.00 0.00 61 1004.9
20260505054546 12 76 0.0 1.6 0.00 0.00 0.00 66 1004.9
20260505053048 12 76 0.0 1.6 0.00 0.00 0.00 64 1004.7
20260505051543 12 75 0.0 1.6 0.00 0.00 0.00 61 1004.8
20260505041541 15 80 0.0 3.2 0.00 0.00 0.00 52 1004.7
20260505040041 15 98 0.0 0.0 0.00 0.00 0.00 50 1004.6
20260505034540 16 97 0.0 1.6 0.00 0.00 0.00 47 1004.5
20260505033102 17 98 0.0 1.6 0.00 0.00 0.00 42 1004.0
20260505031540 18 98 0.0 1.6 0.00 0.00 0.00 36 1003.7
20260505030039 20 112 0.0 8.0 0.00 0.00 0.00 32 1003.6
20260505024538 20 58 0.0 4.8 0.00 0.00 0.00 31 1003.4
20260505023047 21 70 1.6 9.7 0.00 0.00 0.00 30 1003.3
20260505021538 21 98 0.0 8.0 0.00 0.00 0.00 30 1003.3
20260505020043 21 44 1.6 9.7 0.00 0.00 0.00 31 1003.4
20260505014536 21 108 3.2 9.7 0.00 0.00 0.00 29 1003.5
20260505013034 22 36 1.6 6.4 0.00 0.00 0.00 32 1003.5
20260505011533 22 46 1.6 16.1 0.00 0.00 0.00 31 1003.7
20260505010032 22 58 1.6 4.8 0.00 0.00 0.00 30 1003.7
20260505004543 22 51 1.6 8.0 0.00 0.00 0.00 29 1003.9
20260505003030 22 49 0.0 6.4 0.00 0.00 0.00 30 1003.9
20260505001529 22 83 0.0 8.0 0.00 0.00 0.00 32 1004.0
20260505000026 22 32 1.6 6.4 0.00 0.00 0.00 34 1004.1
20260504234530 22 51 1.6 11.3 0.00 0.00 0.00 35 1004.1
20260504233024 22 60 0.0 12.9 0.00 0.00 0.00 35 1004.2
20260504231537 22 53 0.0 8.0 0.00 0.00 0.00 36 1004.2
20260504230021 22 58 0.0 8.0 0.00 0.00 0.00 37 1004.4
20260504224518 22 67 0.0 4.8 0.00 0.00 0.00 38 1004.6
20260504223016 22 100 0.0 16.1 0.00 0.00 0.00 39 1004.7
20260504221513 22 87 0.0 4.8 0.00 0.00 0.00 39 1004.9
20260504220013 22 305 0.0 6.4 0.00 0.00 0.00 38 1005.2
20260504214515 22 133 0.0 4.8 0.00 0.00 0.00 41 1005.4
20260504213008 22 107 1.6 9.7 0.00 0.00 0.00 42 1005.6
20260504211505 21 127 0.0 6.4 0.00 0.00 0.00 42 1005.9
20260504210007 21 86 0.0 8.0 0.00 0.00 0.00 42 1006.1
20260504204639 21 127 1.6 8.0 0.00 0.00 0.00 45 1006.2
20260504203058 21 125 3.2 11.3 0.00 0.00 0.00 45 1006.4
20260504201559 21 65 0.0 8.0 0.00 0.00 0.00 46 1006.5
20260504200058 21 119 1.6 9.7 0.00 0.00 0.00 47 1006.6
20260504194556 20 116 0.0 4.8 0.00 0.00 0.00 47 1006.8
20260504193051 20 115 1.6 9.7 0.00 0.00 0.00 50 1007.1
20260504191549 20 120 1.6 6.4 0.00 0.00 0.00 50 1007.5
20260504190057 20 51 0.0 6.4 0.00 0.00 0.00 51 1007.5
20260504184600 20 75 1.6 9.7 0.00 0.00 0.00 48 1007.5
20260504183053 20 186 1.6 8.0 0.00 0.00 0.00 49 1007.6
20260504181541 20 6 4.8 12.9 0.00 0.00 0.00 48 1007.7
20260504180037 19 235 3.2 9.7 0.00 0.00 0.00 50 1007.8
20260504174533 18 234 4.8 9.7 0.00 0.00 0.00 49 1007.9
20260504173030 18 182 3.2 8.0 0.00 0.00 0.00 49 1008.2
20260504171538 18 176 0.0 9.7 0.00 0.00 0.00 47 1008.3